OpenBCM V2.0.2 (Linux)

Packet Radio Mailbox

IZ3LSV

[San Dona' di P. JN]

 Login: GUEST





  
LU9DCE > KEPS     03.04.18 18:15l 261 Lines 12963 Bytes #999 (0) @ WW
BID : 35850_LU9DCE
Read: GUEST
Subj: SAT TLE OF 3
Path: IZ3LSV<DB0ERF<DB0RES<IR2UBX<OK0NBR<IW0QNL<JH4XSY<JE7YGF<LU4ECL<LU9DCE
Sent: 180403/1601Z @:LU9DCE.TOR.BA.ARG.SOAM #:35850 [TORTUGUITAS] FBB7.07
From: LU9DCE@LU9DCE.TOR.BA.ARG.SOAM
To  : KEPS@WW


            __    _  _  ___  ____   ___  ____    ____  ____  ____
           (  )  / )( \/ _ \(    \ / __)(  __)  (  _ \(  _ \/ ___)
           / (_/\) \/ (\__  )) D (( (__  ) _)    ) _ ( ) _ (\___ \
           \____/\____/(___/(____/ \___)(____)  (____/(____/(____/
               ESTACION DE PACKET RADIO - BUENOS AIRES (GF05OM)
                   BOLETINES INFORMATIVOS PROGRAMADOS (BIP)
                    LU9DCE@GMX.COM - RF 147070 @ 1200 BAUD
                           telnet lu9dce.dynu.com
             BBS port 6300 / NODE port 3694 / DXCLUSTER port 9000

+------------------------------------------------------------------------------+
OSCAR 7
1  7530U 74089B   18092.92153992 -.00000053 +00000-0 -54623-4 0  9997
2  7530 101.6789 061.3957 0012416 119.7981 305.7931 12.53631799984937
OSCAR 11 (UoSAT 2)
1 14781U 84021B   18093.30854787  .00000049  00000-0  12185-4 0  9993
2 14781  97.6586 132.6813 0007765 338.4022  21.6864 14.82991813833349
OSCAR 19 (LUSAT)
1 20442U 90005G   18092.86733436 +.00000017 +00000-0 +22348-4 0  9997
2 20442 098.6046 031.8465 0012153 018.0763 342.0850 14.32891081473048
KITSAT B
1 22825U 93061C   18092.93482752 -.00000014 +00000-0 +12297-4 0  9999
2 22825 098.8556 067.7168 0007948 199.3737 160.7144 14.30025793278547
POSAT 1
1 22826U 93061D   18092.89911216  .00000001  00000-0  18066-4 0  9992
2 22826  98.8496  67.7277 0008653 189.2046 170.8978 14.30356987278995
RADIO ROSTO
1 23439U 94085A   18092.52180222 -.00000035 +00000-0 +20979-3 0  9998
2 23439 064.8140 111.2060 0159812 195.7712 323.4785 11.27566880958036
JAS 2
1 24278U 96046B   18092.80539162 -.00000052  00000-0 -14529-4 0  9996
2 24278  98.5243 301.9187 0349574 306.6248  50.3211 13.53082582 68043
TECHSAT 1B
1 25397U 98043D   18092.90002808 -.00000009 +00000-0 +15251-4 0  9995
2 25397 098.6438 034.6105 0000608 176.1613 183.9571 14.23642562024795
ISS (ZARYA)
1 25544U 98067A   18093.31639155  .00001688  00000-0  32644-4 0  9990
2 25544  51.6427  31.9604 0001461 297.3650 212.7162 15.54185404106874
PCSAT
1 26931U 01043C   18093.19488542 -.00000029  00000-0  20653-4 0  9993
2 26931  67.0513  62.9106 0006843 282.7934  77.2402 14.30499186861827
SAUDISAT 1C
1 27607U 02058C   18092.90893938 -.00000003 +00000-0 +20258-4 0  9991
2 27607 064.5556 320.1326 0056533 345.8246 014.1266 14.75434979821729
CUTE-1
1 27844U 03031E   18092.95691820 +.00000040 +00000-0 +37891-4 0  9998
2 27844 098.6891 102.7161 0008953 224.2840 135.7622 14.22103264765462
CUBESAT XI 4
1 27848U 03031J   18092.75457969  .00000028  00000-0  32624-4 0  9999
2 27848  98.6978 102.8889 0008704 236.1139 123.9210 14.21708488765344
MOZHAYETS 4
1 27939U 03042A   18093.54284818  .00000073  00000-0  21510-4 0  9993
2 27939  97.9776 234.6574 0013530  31.0443  40.0217 14.66670922775876
CUBESAT XI 5
1 28895U 05043F   18093.41279558  .00000126  00000-0  32997-4 0  9999
2 28895  97.8977 247.9426 0015636 308.6200  51.3602 14.63525736662930
CUTE-1.7+APD II
1 32785U 08021C   18093.20855090  .00000184  00000-0  25658-4 0  9999
2 32785  97.5511 108.9532 0011589 289.4237  70.5727 14.88087386538021
DELFI C3
1 32789U 08021G   18093.36296669  .00001555  00000-0  11108-3 0  9998
2 32789  97.5206 150.0450 0012560 186.0559 174.0518 15.05874201540528
SEEDS
1 32791U 08021J   18092.61354072 +.00000320 +00000-0 +38122-4 0  9996
2 32791 097.5416 113.5699 0011823 270.1273 089.8590 14.90503269538179
YUBELEINY
1 32953U 08025A   18093.43028078  .00000008  00000-0 -12817-4 0  9992
2 32953  82.5029  59.1635 0019715  16.4652 343.7064 12.43082507447482
PRISM (HITOMI)
1 33493U 09002B   18093.39883812  .00000679  00000-0  65928-4 0  9992
2 33493  98.1386 352.5945 0014606 198.1322 161.9379 14.96131998499161
KKS-1 (KISEKI)
1 33499U 09002H   18092.89609386 +.00000093 +00000-0 +21849-4 0  9998
2 33499 098.3533 272.2271 0009512 164.9478 195.2014 14.75309667493657
SWISSCUBE
1 35932U 09051B   18092.98816644  .00000140  00000-0  42559-4 0  9997
2 35932  98.5335 242.3885 0008858  83.6824 276.5381 14.56137707452496
BEESAT
1 35933U 09051C   18092.88337932  .00000123  00000-0  38661-4 0  9995
2 35933  98.5375 243.7805 0007101  95.3597 264.8410 14.56244248452587
ITUPSAT 1
1 35935U 09051E   18092.96441529  .00000081  00000-0  29711-4 0  9993
2 35935  98.5487 244.1173 0009386  90.5582 269.6690 14.55423633452381
XIWANG-1 (HOPE-1)
1 36122U 09072B   18093.52759299 -.00000034  00000-0  21436-4 0  9999
2 36122 100.0807 111.6409 0006800 286.4612  73.5755 13.16344052398828
TISAT 1
1 36799U 10035E   18092.87443695  .00000305  00000-0  37049-4 0  9994
2 36799  98.0938 227.1512 0013783  96.1357 264.1431 14.90739890418932
JUGNU
1 37839U 11058B   18093.40825082  .00000322  00000-0  29828-4 0  9995
2 37839  19.9608 130.6906 0019075 141.9769 337.0392 14.12614456334785
SRMSAT
1 37841U 11058D   18092.61646215  .00000309  00000-0  24666-4 0  9999
2 37841  19.9710 183.1383 0012044  21.3338 117.1675 14.10602411334198
M-CUBED/EXP-1 PRIME
1 37855U 11061F   18092.91658362 +.00000963 +00000-0 +57504-4 0  9990
2 37855 101.7246 116.9338 0176906 305.0092 053.4625 15.04233881349860
HORYU 2
1 38340U 12025D   18093.00615139  .00000179  00000-0  34325-4 0  9992
2 38340  98.3717 112.1265 0012936  90.8178 269.4512 14.75521970316029
STRAND 1
1 39090U 13009E   18093.50379387  .00000010  00000-0  18666-4 0  9999
2 39090  98.5293 300.8294 0009674 152.6766 207.4930 14.35017586267116
SOMP
1 39134U 13015E   18092.95157649 +.00001036 +00000-0 +58723-4 0  9995
2 39134 064.8651 010.2451 0020835 219.4739 140.4871 15.18955085273091
BEESAT 3
1 39135U 13015F   18093.18071175  .00000819  00000-0  51644-4 0  9994
2 39135  64.8709  21.8941 0026327 245.9768 113.8602 15.16512404273274
BEESAT 2
1 39136U 13015G   18092.92633412 +.00000727 +00000-0 +47635-4 0  9997
2 39136 064.8710 025.2974 0026849 245.2022 114.6310 15.15986130272797
CUBEBUG 1
1 39153U 13018D   18093.48531579  .00000202  00000-0  33467-4 0  9998
2 39153  97.9764 189.1812 0016987 183.5463 176.5631 14.80364322266541
ZACUBE
1 39417U 13066B   18092.90996135 +.00000203 +00000-0 +32007-4 0  9993
2 39417 097.5952 125.5370 0060138 042.9852 317.6036 14.80901169235650
TRITON 1
1 39427U 13066M   18092.96467779 +.00000157 +00000-0 +32890-4 0  9995
2 39427 097.6399 093.8858 0115100 139.8043 221.1747 14.67629804233354
GOMX 1
1 39430U 13066Q   18093.48472940  .00000148  00000-0  36017-4 0  9998
2 39430  97.6917  75.7696 0150891 205.8796 153.4804 14.59046566232267
HUMSAT D
1 39433U 13066T   18092.85083720  .00000450  00000-0  49776-4 0  9997
2 39433  97.6125 151.8344 0030175 336.0406  23.9407 14.91793371237190
50 SAT
1 39436U 13066W   18093.31933247  .00157727  00000-0  13069-2 0  9994
2 39436  97.7125 223.9965 0001310 226.6762 133.4389 15.69742378241561
CUBEBUG 2
1 39440U 13066AA  18093.00975313  .00000204  00000-0  35256-4 0  9996
2 39440  97.6063 112.6944 0082083  79.9598 281.0862 14.75635512234834
FUNCUBE 1
1 39444U 13066AE  18092.87767027  .00000252  00000-0  37526-4 0  9990
2 39444  97.5962 126.9363 0059181  38.8569 321.6877 14.81670360234501
UWE-3
1 39446U 13066AG  18092.95811967 +.00000209 +00000-0 +34414-4 0  9999
2 39446 097.5994 118.7412 0071606 061.8289 299.0132 14.78169440233412
SPROUT
1 39770U 14029E   18093.48735237  .00000594  00000-0  72899-4 0  9999
2 39770  97.8724 195.1821 0010947  94.8906 265.3552 14.86745851209265
UNISAT 6
1 40012U 14033C   18092.64976735  .00000186  00000-0  35203-4 0  9997
2 40012  97.8195 331.6740 0059951  82.7502 278.0516 14.73785592203572
DUCHIFAT 1
1 40021U 14033M   18093.32872931  .00000430  00000-0  50200-4 0  9992
2 40021  97.9171  11.9123 0014407  67.4025 292.8715 14.90242412205808
QB50P1
1 40025U 14033R   18092.73319742  .00000244  00000-0  32146-4 0  9998
2 40025  97.9076   8.2797 0013965  74.9213 285.3548 14.88667285205562
CHUBUSAT 1
1 40300U 14070C   18093.37686611  .00000640  00000-0  31418-4 0  9999
2 40300  97.3681 172.6608 0020728 159.9616 269.6250 15.21459228188904
NUDT-PHONESAT
1 40900U 15049B   18092.98600851  .00001833  00000-0  85706-4 0  9994
2 40900  97.4433 102.1165 0011907 296.1064  63.8946 15.20994727140486
ZDPS 2A
1 40901U 15049C   18093.47635992  .00000813  00000-0  44540-4 0  9992
2 40901  97.4604 100.9930 0012251 301.4912  58.5123 15.16950180140330
ZDPS 2B
1 40902U 15049D   18093.17613094  .00000748  00000-0  41466-4 0  9990
2 40902  97.4498  98.8442 0012300 299.2404  60.7599 15.16749669140273
XW-2A
1 40903U 15049E   18093.47011627  .00001662  00000-0  43450-4 0  9999
2 40903  97.3929 127.5605 0012760 303.9015  56.1016 15.40197188142303
KAITUO 1A
1 40904U 15049F   18093.45531938  .00000256  00000-0  17226-4 0  9990
2 40904  97.4589  98.4378 0013415 301.9487 219.1836 15.14939477140180
OBJECT G
1 40905U 15049G   18093.46247753  .00000342  00000-0  22476-4 0  9990
2 40905  97.4589  96.6452 0014290 291.8020  68.1691 15.13904682140119
XW-2C
1 40906U 15049H   18093.49242876  .00000588  00000-0  34907-4 0  9999
2 40906  97.4607  98.3575 0013483 291.4336  68.5457 15.15087629140181
XW-2D
1 40907U 15049J   18093.51818120  .00000639  00000-0  37496-4 0  9997
2 40907  97.4580  98.0889 0012819 288.9979  70.9864 15.15230788140199
LILACSAT 2
1 40908U 15049K   18093.17118520  .00000325  00000-0  21811-4 0  9993
2 40908  97.4690  97.2027 0014494 291.2194  68.7489 15.13449384140026
XW-2F
1 40910U 15049M   18093.45830743  .00000961  00000-0  52895-4 0  9997
2 40910  97.4585  99.2105 0013484 284.7983  75.1756 15.16371560140125
XW-2B
1 40911U 15049N   18093.53298987  .00000619  00000-0  36471-4 0  9997
2 40911  97.4616  98.6125 0012741 289.6061  70.3795 15.15177333140099
